Overview Statistics Trail Chart Weather Telemetry Raw packets
 

This is the latest recevied weather packets stored in our database for station/object W8CWV-13. If no packets are shown the sender has not sent any weather packets the latest 10 day(s).

<< 53 54 55 56 57 >>
Time Temp. Humidity Pressure Rain* Wind** Luminosity Snow
1787781898 28.33° C 100% 1024.6 hPa - - - -
1787781321 28.89° C 100% 1024.8 hPa - - - -
1787780748 28.89° C 100% 1024.8 hPa - - - -
1787780176 28.33° C 100% 1024.9 hPa - - - -
1787779598 28.89° C 100% 1025 hPa - - - -
1787779028 29.44° C 100% 1024.9 hPa - - - -
1787778454 30° C 100% 1025.2 hPa - - - -
1787777882 30° C 100% 1025.2 hPa - - - -
1787777305 30° C 100% 1025.3 hPa - - - -
1787776732 30° C 100% 1025.3 hPa - - - -
1787776159 30.56° C 100% 1025.6 hPa - - - -
1787775581 31.11° C 100% 1026 hPa - - - -
1787775010 32.78° C 100% 1026.1 hPa - - - -
1787774437 32.78° C 100% 1026.3 hPa - - - -
1787773857 32.78° C 100% 1026.4 hPa - - - -
1787773289 32.78° C 100% 1026.6 hPa - - - -
1787772713 32.22° C 100% 1026.4 hPa - - - -
1787772134 33.33° C 100% 1026.6 hPa - - - -
1787771561 32.22° C 100% 1026.5 hPa - - - -
1787770988 31.11° C 100% 1026.5 hPa - - - -
1787770413 31.67° C 100% 1026.7 hPa - - - -
1787769842 32.78° C 100% 1026.8 hPa - - - -
1787769265 33.33° C 100% 1026.9 hPa - - - -
1787768688 34.44° C 100% 1026.8 hPa - - - -
1787768115 33.89° C 100% 1026.9 hPa - - - -

* Rain since midnight (hover to see other rain measurements)
** Current wind speed in m/s (hover to see current wind gust speed)